TimeEDT,TemperatureF,Dew PointF,Humidity,Sea Level PressureIn,VisibilityMPH,Wind Direction,Wind SpeedMPH,Gust SpeedMPH,PrecipitationIn,Events,Conditions,WindDirDegrees,DateUTC
12:53 AM,54.0,54.0,100,30.21,6.0,Calm,Calm,-,N/A,,Clear,0,2012-10-04 04:53:00
1:34 AM,53.6,53.6,100,30.22,6.0,Calm,Calm,-,N/A,,Scattered Clouds,0,2012-10-04 05:34:00
1:46 AM,53.6,53.6,100,30.23,5.0,Calm,Calm,-,N/A,,Mostly Cloudy,0,2012-10-04 05:46:00
1:53 AM,54.0,54.0,100,30.21,5.0,Calm,Calm,-,N/A,,Mostly Cloudy,0,2012-10-04 05:53:00
2:03 AM,53.6,53.6,100,30.22,7.0,Calm,Calm,-,N/A,,Scattered Clouds,0,2012-10-04 06:03:00
2:53 AM,55.0,55.0,100,30.21,5.0,Calm,Calm,-,N/A,,Partly Cloudy,0,2012-10-04 06:53:00
3:11 AM,55.4,55.4,100,30.23,5.0,Calm,Calm,-,N/A,,Mostly Cloudy,0,2012-10-04 07:11:00
3:22 AM,53.6,53.6,100,30.23,5.0,Calm,Calm,-,N/A,,Scattered Clouds,0,2012-10-04 07:22:00
3:53 AM,55.0,55.0,100,30.21,5.0,Calm,Calm,-,N/A,,Clear,0,2012-10-04 07:53:00
4:51 AM,53.6,53.6,100,30.24,3.0,Calm,Calm,-,N/A,,Scattered Clouds,0,2012-10-04 08:51:00
4:53 AM,54.0,54.0,100,30.22,3.0,Calm,Calm,-,N/A,,Scattered Clouds,0,2012-10-04 08:53:00
5:00 AM,53.6,53.6,100,30.24,3.0,Calm,Calm,-,N/A,,Mostly Cloudy,0,2012-10-04 09:00:00
5:14 AM,53.6,53.6,100,30.25,1.8,Calm,Calm,-,N/A,,Overcast,0,2012-10-04 09:14:00
5:21 AM,53.6,53.6,100,30.25,0.2,Calm,Calm,-,N/A,Fog,Fog,0,2012-10-04 09:21:00
5:40 AM,53.6,53.6,100,30.25,0.5,Calm,Calm,-,N/A,Fog,Fog,0,2012-10-04 09:40:00
5:53 AM,54.0,54.0,100,30.24,1.8,Calm,Calm,-,N/A,,Overcast,0,2012-10-04 09:53:00
6:03 AM,55.4,55.4,100,30.27,0.2,Calm,Calm,-,N/A,Fog,Fog,0,2012-10-04 10:03:00
6:53 AM,54.0,54.0,100,30.25,0.2,Calm,Calm,-,N/A,Fog,Fog,0,2012-10-04 10:53:00
7:04 AM,53.6,53.6,100,30.27,0.5,Calm,Calm,-,N/A,Fog,Fog,0,2012-10-04 11:04:00
7:29 AM,53.6,53.6,100,30.27,0.2,Calm,Calm,-,N/A,Fog,Fog,0,2012-10-04 11:29:00
7:53 AM,54.0,54.0,100,30.27,0.2,Calm,Calm,-,N/A,Fog,Fog,0,2012-10-04 11:53:00
8:53 AM,54.0,54.0,100,30.28,0.2,Calm,Calm,-,N/A,Fog,Fog,0,2012-10-04 12:53:00
9:53 AM,55.9,55.9,100,30.30,0.2,Calm,Calm,-,N/A,Fog,Fog,0,2012-10-04 13:53:00
10:08 AM,57.2,57.2,100,30.31,1.0,Calm,Calm,-,N/A,,Mist,0,2012-10-04 14:08:00
10:17 AM,59.0,59.0,100,30.31,3.0,Calm,Calm,-,N/A,,Overcast,0,2012-10-04 14:17:00
10:38 AM,60.8,59.0,94,30.32,8.0,Calm,Calm,-,N/A,,Scattered Clouds,0,2012-10-04 14:38:00
11:53 AM,70.0,60.1,71,30.29,10.0,NNE,3.5,-,N/A,,Clear,30,2012-10-04 15:53:00
12:53 PM,73.0,60.1,64,30.27,10.0,Calm,Calm,-,N/A,,Clear,0,2012-10-04 16:53:00
1:53 PM,77.0,57.0,50,30.25,10.0,North,6.9,-,N/A,,Clear,10,2012-10-04 17:53:00
2:53 PM,80.1,57.0,45,30.22,10.0,NNE,4.6,-,N/A,,Clear,30,2012-10-04 18:53:00
3:53 PM,79.0,55.0,44,30.21,10.0,Calm,Calm,-,N/A,,Clear,0,2012-10-04 19:53:00
4:53 PM,79.0,55.0,44,30.20,10.0,North,5.8,-,N/A,,Clear,360,2012-10-04 20:53:00
5:53 PM,77.0,55.9,48,30.19,10.0,NNE,4.6,-,N/A,,Clear,20,2012-10-04 21:53:00
6:53 PM,73.0,57.9,59,30.19,10.0,Calm,Calm,-,N/A,,Clear,0,2012-10-04 22:53:00
7:53 PM,63.0,61.0,93,30.19,10.0,Calm,Calm,-,N/A,,Clear,0,2012-10-04 23:53:00
9:53 PM,59.0,57.9,96,30.21,7.0,Calm,Calm,-,N/A,,Clear,0,2012-10-05 01:53:00
10:53 PM,57.9,57.9,100,30.23,6.0,Calm,Calm,-,N/A,,Clear,0,2012-10-05 02:53:00
11:53 PM,57.0,55.9,96,30.22,5.0,Calm,Calm,-,N/A,,Clear,0,2012-10-05 03:53:00